Year,Month,Day,Hour,Minute,Value (Times are PST for temperature in C)
2012,03,16,00,00,6.30
2012,03,16,00,01,6.30
2012,03,16,00,02,6.20
2012,03,16,00,03,6.20
2012,03,16,00,04,6.20
2012,03,16,00,05,6.20
2012,03,16,00,06,6.20
2012,03,16,00,07,6.20
2012,03,16,00,08,6.10
2012,03,16,00,09,6.10
2012,03,16,00,10,6.10
2012,03,16,00,11,6.10
2012,03,16,00,12,6.10
2012,03,16,00,13,6.10
2012,03,16,00,14,6.10
2012,03,16,00,15,6.10
2012,03,16,00,16,6.10
2012,03,16,00,17,6.10
2012,03,16,00,18,6.10
2012,03,16,00,19,6.10
2012,03,16,00,20,6.10
2012,03,16,00,21,6.10
2012,03,16,00,22,6.10
2012,03,16,00,23,6.10
2012,03,16,00,24,6.10
2012,03,16,00,25,6.10
2012,03,16,00,26,6.10
2012,03,16,00,27,6.10
2012,03,16,00,28,6.10
2012,03,16,00,29,6.10
2012,03,16,00,30,6.10
2012,03,16,00,31,6.10
2012,03,16,00,32,6.10
2012,03,16,00,33,6.10
2012,03,16,00,34,6.10
2012,03,16,00,35,6.10
2012,03,16,00,36,6.10
2012,03,16,00,37,6.10
2012,03,16,00,38,6.10
2012,03,16,00,39,6.10
2012,03,16,00,40,6.10
2012,03,16,00,41,6.10
2012,03,16,00,42,6.10
2012,03,16,00,43,6.10
2012,03,16,00,44,6.10
2012,03,16,00,45,6.10
2012,03,16,00,46,6.10
2012,03,16,00,47,6.10
2012,03,16,00,48,6.10
2012,03,16,00,49,6.10
2012,03,16,00,50,6.10
2012,03,16,00,51,6.10
2012,03,16,00,52,6.10
2012,03,16,00,53,6.10
2012,03,16,00,54,6.10
2012,03,16,00,55,6.10
2012,03,16,00,56,6.10
2012,03,16,00,57,6.10
2012,03,16,00,58,6.10
2012,03,16,00,59,6.10
2012,03,16,01,00,6.10
2012,03,16,01,01,6.10
2012,03,16,01,02,6.10
2012,03,16,01,03,6.10
2012,03,16,01,04,6.00
2012,03,16,01,05,6.00
2012,03,16,01,06,6.00
2012,03,16,01,07,6.00
2012,03,16,01,08,6.00
2012,03,16,01,09,6.00
2012,03,16,01,10,6.00
2012,03,16,01,11,6.00
2012,03,16,01,12,6.00
2012,03,16,01,13,6.00
2012,03,16,01,14,6.00
2012,03,16,01,15,6.00
2012,03,16,01,16,6.00
2012,03,16,01,17,6.00
2012,03,16,01,18,6.00
2012,03,16,01,19,6.00
2012,03,16,01,20,6.10
2012,03,16,01,21,6.10
2012,03,16,01,22,6.10
2012,03,16,01,23,6.10
2012,03,16,01,24,6.10
2012,03,16,01,25,6.10
2012,03,16,01,26,6.10
2012,03,16,01,27,6.10
2012,03,16,01,28,6.10
2012,03,16,01,29,6.10
2012,03,16,01,30,6.10
2012,03,16,01,31,6.10
2012,03,16,01,32,6.20
2012,03,16,01,33,6.20
2012,03,16,01,34,6.20
2012,03,16,01,35,6.20
2012,03,16,01,36,6.20
2012,03,16,01,37,6.20
2012,03,16,01,38,6.20
2012,03,16,01,39,6.20
2012,03,16,01,40,6.20
2012,03,16,01,41,6.20
2012,03,16,01,42,6.20
2012,03,16,01,43,6.20
2012,03,16,01,44,6.20
2012,03,16,01,45,6.20
2012,03,16,01,46,6.20
2012,03,16,01,47,6.20
2012,03,16,01,48,6.20
2012,03,16,01,49,6.20
2012,03,16,01,50,6.20
2012,03,16,01,51,6.20
2012,03,16,01,52,6.20
2012,03,16,01,53,6.20
2012,03,16,01,54,6.20
2012,03,16,01,55,6.20
2012,03,16,01,56,6.20
2012,03,16,01,57,6.20
2012,03,16,01,58,6.20
2012,03,16,01,59,6.20
2012,03,16,02,00,6.20
2012,03,16,02,01,6.20
2012,03,16,02,02,6.20
2012,03,16,02,03,6.10
2012,03,16,02,04,6.10
2012,03,16,02,05,6.10
2012,03,16,02,06,6.00
2012,03,16,02,07,6.00
2012,03,16,02,08,6.00
2012,03,16,02,09,6.00
2012,03,16,02,10,5.90
2012,03,16,02,11,5.90
2012,03,16,02,12,5.90
2012,03,16,02,13,5.90
2012,03,16,02,14,5.90
2012,03,16,02,15,5.90
2012,03,16,02,16,5.90
2012,03,16,02,17,5.90
2012,03,16,02,18,5.90
2012,03,16,02,19,5.90
2012,03,16,02,20,5.80
2012,03,16,02,21,5.80
2012,03,16,02,22,5.80
2012,03,16,02,23,5.80
2012,03,16,02,24,5.80
2012,03,16,02,25,5.80
2012,03,16,02,26,5.80
2012,03,16,02,27,5.80
2012,03,16,02,28,5.80
2012,03,16,02,29,5.70
2012,03,16,02,30,5.70
2012,03,16,02,31,5.70
2012,03,16,02,32,5.70
2012,03,16,02,33,5.70
2012,03,16,02,34,5.70
2012,03,16,02,35,5.60
2012,03,16,02,36,5.60
2012,03,16,02,37,5.60
2012,03,16,02,38,5.60
2012,03,16,02,39,5.60
2012,03,16,02,40,5.50
2012,03,16,02,41,5.50
2012,03,16,02,42,5.50
2012,03,16,02,43,5.40
2012,03,16,02,44,5.40
2012,03,16,02,45,5.40
2012,03,16,02,46,5.30
2012,03,16,02,47,5.30
2012,03,16,02,48,5.30
2012,03,16,02,49,5.30
2012,03,16,02,50,5.20
2012,03,16,02,51,5.20
2012,03,16,02,52,5.20
2012,03,16,02,53,5.20
2012,03,16,02,54,5.20
2012,03,16,02,55,5.20
2012,03,16,02,56,5.20
2012,03,16,02,57,5.20
2012,03,16,02,58,5.20
2012,03,16,02,59,5.20
2012,03,16,03,00,5.20
2012,03,16,03,01,5.10
2012,03,16,03,02,5.10
2012,03,16,03,03,5.10
2012,03,16,03,04,5.10
2012,03,16,03,05,5.10
2012,03,16,03,06,5.10
2012,03,16,03,07,5.10
2012,03,16,03,08,5.10
2012,03,16,03,09,5.10
2012,03,16,03,10,5.00
2012,03,16,03,11,5.00
2012,03,16,03,12,5.00
2012,03,16,03,13,5.00
2012,03,16,03,14,5.00
2012,03,16,03,15,5.00
2012,03,16,03,16,5.00
2012,03,16,03,17,5.00
2012,03,16,03,18,5.00
2012,03,16,03,19,5.00
2012,03,16,03,20,5.00
2012,03,16,03,21,5.00
2012,03,16,03,22,5.00
2012,03,16,03,23,5.00
2012,03,16,03,24,5.00
2012,03,16,03,25,5.00
2012,03,16,03,26,5.10
2012,03,16,03,27,5.10
2012,03,16,03,28,5.10
2012,03,16,03,29,5.10
2012,03,16,03,30,5.10
2012,03,16,03,31,5.10
2012,03,16,03,32,5.10
2012,03,16,03,33,5.10
2012,03,16,03,34,5.10
2012,03,16,03,35,5.10
2012,03,16,03,36,5.10
2012,03,16,03,37,5.10
2012,03,16,03,38,5.10
2012,03,16,03,39,5.10
2012,03,16,03,40,5.00
2012,03,16,03,41,5.00
2012,03,16,03,42,5.10
2012,03,16,03,43,5.10
2012,03,16,03,44,5.10
2012,03,16,03,45,5.00
2012,03,16,03,46,5.00
2012,03,16,03,47,5.00
2012,03,16,03,48,5.00
2012,03,16,03,49,5.00
2012,03,16,03,50,5.00
2012,03,16,03,51,5.00
2012,03,16,03,52,5.00
2012,03,16,03,53,5.00
2012,03,16,03,54,5.00
2012,03,16,03,55,5.00
2012,03,16,03,56,5.00
2012,03,16,03,57,5.00
2012,03,16,03,58,5.00
2012,03,16,03,59,4.90
2012,03,16,04,00,4.90
2012,03,16,04,01,4.90
2012,03,16,04,02,4.90
2012,03,16,04,03,4.90
2012,03,16,04,04,4.90
2012,03,16,04,05,4.90
2012,03,16,04,06,4.90
2012,03,16,04,07,4.90
2012,03,16,04,08,4.90
2012,03,16,04,09,4.90
2012,03,16,04,10,4.90
2012,03,16,04,11,4.90
2012,03,16,04,12,4.90
2012,03,16,04,13,4.90
2012,03,16,04,14,4.90
2012,03,16,04,15,4.90
2012,03,16,04,16,4.90
2012,03,16,04,17,4.90
2012,03,16,04,18,4.90
2012,03,16,04,19,4.90
2012,03,16,04,20,4.90
2012,03,16,04,21,4.90
2012,03,16,04,22,4.90
2012,03,16,04,23,4.90
2012,03,16,04,24,4.80
2012,03,16,04,25,4.80
2012,03,16,04,26,4.80
2012,03,16,04,27,4.80
2012,03,16,04,28,4.80
2012,03,16,04,29,4.80
2012,03,16,04,30,4.80
2012,03,16,04,31,4.80
2012,03,16,04,32,4.80
2012,03,16,04,33,4.80
2012,03,16,04,34,4.80
2012,03,16,04,35,4.80
2012,03,16,04,36,4.80
2012,03,16,04,37,4.70
2012,03,16,04,38,4.70
2012,03,16,04,39,4.70
2012,03,16,04,40,4.70
2012,03,16,04,41,4.70
2012,03,16,04,42,4.70
2012,03,16,04,43,4.70
2012,03,16,04,44,4.70
2012,03,16,04,45,4.70
2012,03,16,04,46,4.70
2012,03,16,04,47,4.70
2012,03,16,04,48,4.60
2012,03,16,04,49,4.60
2012,03,16,04,50,4.60
2012,03,16,04,51,4.60
2012,03,16,04,52,4.60
2012,03,16,04,53,4.60
2012,03,16,04,54,4.50
2012,03,16,04,55,4.50
2012,03,16,04,56,4.50
2012,03,16,04,57,4.50
2012,03,16,04,58,4.50
2012,03,16,04,59,4.50
2012,03,16,05,00,4.40
2012,03,16,05,01,4.40
2012,03,16,05,02,4.40
2012,03,16,05,03,4.40
2012,03,16,05,04,4.40
2012,03,16,05,05,4.40
2012,03,16,05,06,4.40
2012,03,16,05,07,4.40
2012,03,16,05,08,4.40
2012,03,16,05,09,4.40
2012,03,16,05,10,4.40
2012,03,16,05,11,4.30
2012,03,16,05,12,4.30
2012,03,16,05,13,4.30
2012,03,16,05,14,4.30
2012,03,16,05,15,4.30
2012,03,16,05,16,4.30
2012,03,16,05,17,4.30
2012,03,16,05,18,4.30
2012,03,16,05,19,4.20
2012,03,16,05,20,4.20
2012,03,16,05,21,4.20
2012,03,16,05,22,4.20
2012,03,16,05,23,4.20
2012,03,16,05,24,4.20
2012,03,16,05,25,4.20
2012,03,16,05,26,4.20
2012,03,16,05,27,4.20
2012,03,16,05,28,4.20
2012,03,16,05,29,4.20
2012,03,16,05,30,4.20
2012,03,16,05,31,4.10
2012,03,16,05,32,4.10
2012,03,16,05,33,4.10
2012,03,16,05,34,4.10
2012,03,16,05,35,4.10
2012,03,16,05,36,4.10
2012,03,16,05,37,4.10
2012,03,16,05,38,4.00
2012,03,16,05,39,4.00
2012,03,16,05,40,4.00
2012,03,16,05,41,3.90
2012,03,16,05,42,3.90
2012,03,16,05,43,3.90
2012,03,16,05,44,3.90
2012,03,16,05,45,3.80
2012,03,16,05,46,3.80
2012,03,16,05,47,3.80
2012,03,16,05,48,3.80
2012,03,16,05,49,3.80
2012,03,16,05,50,3.80
2012,03,16,05,51,3.70
2012,03,16,05,52,3.70
2012,03,16,05,53,3.70
2012,03,16,05,54,3.70
2012,03,16,05,55,3.70
2012,03,16,05,56,3.70
2012,03,16,05,57,3.70
2012,03,16,05,58,3.70
2012,03,16,05,59,3.70
2012,03,16,06,00,3.70
2012,03,16,06,01,3.70
2012,03,16,06,02,3.70
2012,03,16,06,03,3.70
2012,03,16,06,04,3.70
2012,03,16,06,05,3.70
2012,03,16,06,06,3.70
2012,03,16,06,07,3.70
2012,03,16,06,08,3.70
2012,03,16,06,09,3.70
2012,03,16,06,10,3.70
2012,03,16,06,11,3.70
2012,03,16,06,12,3.70
2012,03,16,06,13,3.70
2012,03,16,06,14,3.70
2012,03,16,06,15,3.60
2012,03,16,06,16,3.70
2012,03,16,06,17,3.70
2012,03,16,06,18,3.70
2012,03,16,06,19,3.70
2012,03,16,06,20,3.70
2012,03,16,06,21,3.70
2012,03,16,06,22,3.70
2012,03,16,06,23,3.70
2012,03,16,06,24,3.70
2012,03,16,06,25,3.70
2012,03,16,06,26,3.70
2012,03,16,06,27,3.70
2012,03,16,06,28,3.70
2012,03,16,06,29,3.70
2012,03,16,06,30,3.70
2012,03,16,06,31,3.70
2012,03,16,06,32,3.70
2012,03,16,06,33,3.80
2012,03,16,06,34,3.80
2012,03,16,06,35,3.80
2012,03,16,06,36,3.80
2012,03,16,06,37,3.80
2012,03,16,06,38,3.80
2012,03,16,06,39,3.80
2012,03,16,06,40,3.80
2012,03,16,06,41,3.80
2012,03,16,06,42,3.80
2012,03,16,06,43,3.80
2012,03,16,06,44,3.80
2012,03,16,06,45,3.80
2012,03,16,06,46,3.80
2012,03,16,06,47,3.80
2012,03,16,06,48,3.80
2012,03,16,06,49,3.80
2012,03,16,06,50,3.90
2012,03,16,06,51,3.90
2012,03,16,06,52,3.90
2012,03,16,06,53,3.90
2012,03,16,06,54,3.90
2012,03,16,06,55,3.90
2012,03,16,06,56,3.90
2012,03,16,06,57,3.90
2012,03,16,06,58,3.90
2012,03,16,06,59,3.90
2012,03,16,07,00,4.00
2012,03,16,07,01,4.00
2012,03,16,07,02,4.00
2012,03,16,07,03,4.00
2012,03,16,07,04,4.00
2012,03,16,07,05,4.00
2012,03,16,07,06,4.00
2012,03,16,07,07,4.00
2012,03,16,07,08,4.00
2012,03,16,07,09,4.10
2012,03,16,07,10,4.10
2012,03,16,07,11,4.10
2012,03,16,07,12,4.10
2012,03,16,07,13,4.10
2012,03,16,07,14,4.10
2012,03,16,07,15,4.10
2012,03,16,07,16,4.10
2012,03,16,07,17,4.10
2012,03,16,07,18,4.10
2012,03,16,07,19,4.10
2012,03,16,07,20,4.10
2012,03,16,07,21,4.10
2012,03,16,07,22,4.10
2012,03,16,07,23,4.20
2012,03,16,07,24,4.20
2012,03,16,07,25,4.20
2012,03,16,07,26,4.20
2012,03,16,07,27,4.20
2012,03,16,07,28,4.30
2012,03,16,07,29,4.30
2012,03,16,07,30,4.30
2012,03,16,07,31,4.30
2012,03,16,07,32,4.30
2012,03,16,07,33,4.40
2012,03,16,07,34,4.40
2012,03,16,07,35,4.40
2012,03,16,07,36,4.40
2012,03,16,07,37,4.40
2012,03,16,07,38,4.50
2012,03,16,07,39,4.50
2012,03,16,07,40,4.50
2012,03,16,07,41,4.60
2012,03,16,07,42,4.60
2012,03,16,07,43,4.60
2012,03,16,07,44,4.60
2012,03,16,07,45,4.70
2012,03,16,07,46,4.70
2012,03,16,07,47,4.70
2012,03,16,07,48,4.70
2012,03,16,07,49,4.70
2012,03,16,07,50,4.80
2012,03,16,07,51,4.80
2012,03,16,07,52,4.80
2012,03,16,07,53,4.80
2012,03,16,07,54,4.80
2012,03,16,07,55,4.90
2012,03,16,07,56,4.90
2012,03,16,07,57,4.90
2012,03,16,07,58,4.90
2012,03,16,07,59,4.90
2012,03,16,08,00,4.90
2012,03,16,08,01,4.90
2012,03,16,08,02,4.80
2012,03,16,08,03,4.80
2012,03,16,08,04,4.80
2012,03,16,08,05,4.80
2012,03,16,08,06,4.80
2012,03,16,08,07,4.80
2012,03,16,08,08,4.70
2012,03,16,08,09,4.70
2012,03,16,08,10,4.70
2012,03,16,08,11,4.70
2012,03,16,08,12,4.60
2012,03,16,08,13,4.60
2012,03,16,08,14,4.60
2012,03,16,08,15,4.60
2012,03,16,08,16,4.60
2012,03,16,08,17,4.60
2012,03,16,08,18,4.60
2012,03,16,08,19,4.60
2012,03,16,08,20,4.50
2012,03,16,08,21,4.50
2012,03,16,08,22,4.50
2012,03,16,08,23,4.50
2012,03,16,08,24,4.50
2012,03,16,08,25,4.60
2012,03,16,08,26,4.60
2012,03,16,08,27,4.60
2012,03,16,08,28,4.60
2012,03,16,08,29,4.60
2012,03,16,08,30,4.60
2012,03,16,08,31,4.70
2012,03,16,08,32,4.70
2012,03,16,08,33,4.70
2012,03,16,08,34,4.70
2012,03,16,08,35,4.70
2012,03,16,08,36,4.70
2012,03,16,08,37,4.70
2012,03,16,08,38,4.70
2012,03,16,08,39,4.70
2012,03,16,08,40,4.70
2012,03,16,08,41,4.70
2012,03,16,08,42,4.70
2012,03,16,08,43,4.70
2012,03,16,08,44,4.80
2012,03,16,08,45,4.80
2012,03,16,08,46,4.80
2012,03,16,08,47,4.80
2012,03,16,08,48,4.80
2012,03,16,08,49,4.80
2012,03,16,08,50,4.80
2012,03,16,08,51,4.80
2012,03,16,08,52,4.80
2012,03,16,08,53,4.80
2012,03,16,08,54,4.90
2012,03,16,08,55,4.90
2012,03,16,08,56,4.90
2012,03,16,08,57,4.90
2012,03,16,08,58,4.90
2012,03,16,08,59,4.90
2012,03,16,09,00,4.90
2012,03,16,09,01,4.90
2012,03,16,09,02,4.90
2012,03,16,09,03,5.00
2012,03,16,09,04,5.00
2012,03,16,09,05,5.00
2012,03,16,09,06,5.00
2012,03,16,09,07,5.10
2012,03,16,09,08,5.10
2012,03,16,09,09,5.10
2012,03,16,09,10,5.10
2012,03,16,09,11,5.20
2012,03,16,09,12,5.20
2012,03,16,09,13,5.20
2012,03,16,09,14,5.20
2012,03,16,09,15,5.30
2012,03,16,09,16,5.30
2012,03,16,09,17,5.30
2012,03,16,09,18,5.30
2012,03,16,09,19,5.30
2012,03,16,09,20,5.30
2012,03,16,09,21,5.30
2012,03,16,09,22,5.30
2012,03,16,09,23,5.30
2012,03,16,09,24,5.30
2012,03,16,09,25,5.30
2012,03,16,09,26,5.30
2012,03,16,09,27,5.30
2012,03,16,09,28,5.30
2012,03,16,09,29,5.30
2012,03,16,09,30,5.30
2012,03,16,09,31,5.30
2012,03,16,09,32,5.30
2012,03,16,09,33,5.30
2012,03,16,09,34,5.30
2012,03,16,09,35,5.30
2012,03,16,09,36,5.30
2012,03,16,09,37,5.30
2012,03,16,09,38,5.30
2012,03,16,09,39,5.30
2012,03,16,09,40,5.30
2012,03,16,09,41,5.30
2012,03,16,09,42,5.30
2012,03,16,09,43,5.30
2012,03,16,09,44,5.30
2012,03,16,09,45,5.30
2012,03,16,09,46,5.30
2012,03,16,09,47,5.30
2012,03,16,09,48,5.30
2012,03,16,09,49,5.30
2012,03,16,09,50,5.40
2012,03,16,09,51,5.40
2012,03,16,09,52,5.40
2012,03,16,09,53,5.40
2012,03,16,09,54,5.40
2012,03,16,09,55,5.40
2012,03,16,09,56,5.40
2012,03,16,09,57,5.40
2012,03,16,09,58,5.50
2012,03,16,09,59,5.50
2012,03,16,10,00,5.60
2012,03,16,10,01,5.60
2012,03,16,10,02,5.70
2012,03,16,10,03,5.70
2012,03,16,10,04,5.70
2012,03,16,10,05,5.70
2012,03,16,10,06,5.70
2012,03,16,10,07,5.70
2012,03,16,10,08,5.80
2012,03,16,10,09,5.80
2012,03,16,10,10,5.80
2012,03,16,10,11,5.80
2012,03,16,10,12,5.80
2012,03,16,10,13,5.90
2012,03,16,10,14,5.90
2012,03,16,10,15,6.00
2012,03,16,10,16,6.00
2012,03,16,10,17,6.00
2012,03,16,10,18,6.10
2012,03,16,10,19,6.10
2012,03,16,10,20,6.10
2012,03,16,10,21,6.10
2012,03,16,10,22,6.00
2012,03,16,10,23,6.00
2012,03,16,10,24,6.10
2012,03,16,10,25,6.10
2012,03,16,10,26,6.10
2012,03,16,10,27,6.10
2012,03,16,10,28,6.20
2012,03,16,10,29,6.20
2012,03,16,10,30,6.20
2012,03,16,10,31,6.30
2012,03,16,10,32,6.30
2012,03,16,10,33,6.30
2012,03,16,10,34,6.40
2012,03,16,10,35,6.40
2012,03,16,10,36,6.40
2012,03,16,10,37,6.50
2012,03,16,10,38,6.50
2012,03,16,10,39,6.60
2012,03,16,10,40,6.60
2012,03,16,10,41,6.60
2012,03,16,10,42,6.70
2012,03,16,10,43,6.70
2012,03,16,10,44,6.70
2012,03,16,10,45,6.60
2012,03,16,10,46,6.60
2012,03,16,10,47,6.60
2012,03,16,10,48,6.60
2012,03,16,10,49,6.60
2012,03,16,10,50,6.60
2012,03,16,10,51,6.60
2012,03,16,10,52,6.60
2012,03,16,10,53,6.60
2012,03,16,10,54,6.60
2012,03,16,10,55,6.60
2012,03,16,10,56,6.70
2012,03,16,10,57,6.70
2012,03,16,10,58,6.60
2012,03,16,10,59,6.60
2012,03,16,11,00,6.60
2012,03,16,11,01,6.60
2012,03,16,11,02,6.60
2012,03,16,11,03,6.60
2012,03,16,11,04,6.60
2012,03,16,11,05,6.70
2012,03,16,11,06,6.70
2012,03,16,11,07,6.60
2012,03,16,11,08,6.60
2012,03,16,11,09,6.60
2012,03,16,11,10,6.60
2012,03,16,11,11,6.50
2012,03,16,11,12,6.50
2012,03,16,11,13,6.50
2012,03,16,11,14,6.50
2012,03,16,11,15,6.50
2012,03,16,11,16,6.50
2012,03,16,11,17,6.50
2012,03,16,11,18,6.50
2012,03,16,11,19,6.50
2012,03,16,11,20,6.50
2012,03,16,11,21,6.60
2012,03,16,11,22,6.60
2012,03,16,11,23,6.60
2012,03,16,11,24,6.70
2012,03,16,11,25,6.70
2012,03,16,11,26,6.70
2012,03,16,11,27,6.70
2012,03,16,11,28,6.70
2012,03,16,11,29,6.80
2012,03,16,11,30,6.80
2012,03,16,11,31,6.80
2012,03,16,11,32,6.80
2012,03,16,11,33,6.80
2012,03,16,11,34,6.90
2012,03,16,11,35,6.90
2012,03,16,11,36,6.90
2012,03,16,11,37,6.90
2012,03,16,11,38,6.90
2012,03,16,11,39,6.90
2012,03,16,11,40,6.90
2012,03,16,11,41,7.00
2012,03,16,11,42,6.90
2012,03,16,11,43,7.00
2012,03,16,11,44,7.00
2012,03,16,11,45,7.10
2012,03,16,11,46,7.10
2012,03,16,11,47,7.20
2012,03,16,11,48,7.30
2012,03,16,11,49,7.30
2012,03,16,11,50,7.30
2012,03,16,11,51,7.30
2012,03,16,11,52,7.30
2012,03,16,11,53,7.40
2012,03,16,11,54,7.50
2012,03,16,11,55,7.50
2012,03,16,11,56,7.60
2012,03,16,11,57,7.60
2012,03,16,11,58,7.70
2012,03,16,11,59,7.70
2012,03,16,12,00,7.70
2012,03,16,12,01,7.70
2012,03,16,12,02,7.70
2012,03,16,12,03,7.70
2012,03,16,12,04,7.70
2012,03,16,12,05,7.70
2012,03,16,12,06,7.70
2012,03,16,12,07,7.60
2012,03,16,12,08,7.60
2012,03,16,12,09,7.60
2012,03,16,12,10,7.60
2012,03,16,12,11,7.50
2012,03,16,12,12,7.50
2012,03,16,12,13,7.50
2012,03,16,12,14,7.50
2012,03,16,12,15,7.50
2012,03,16,12,16,7.60
2012,03,16,12,17,7.50
2012,03,16,12,18,7.50
2012,03,16,12,19,7.50
2012,03,16,12,20,7.60
2012,03,16,12,21,7.60
2012,03,16,12,22,7.60
2012,03,16,12,23,7.60
2012,03,16,12,24,7.60
2012,03,16,12,25,7.60
2012,03,16,12,26,7.60
2012,03,16,12,27,7.60
2012,03,16,12,28,7.60
2012,03,16,12,29,7.60
2012,03,16,12,30,7.60
2012,03,16,12,31,7.60
2012,03,16,12,32,7.60
2012,03,16,12,33,7.50
2012,03,16,12,34,7.50
2012,03,16,12,35,7.50
2012,03,16,12,36,7.50
2012,03,16,12,37,7.50
2012,03,16,12,38,7.50
2012,03,16,12,39,7.50
2012,03,16,12,40,7.60
2012,03,16,12,41,7.60
2012,03,16,12,42,7.60
2012,03,16,12,43,7.60
2012,03,16,12,44,7.70
2012,03,16,12,45,7.70
2012,03,16,12,46,7.70
2012,03,16,12,47,7.70
2012,03,16,12,48,7.70
2012,03,16,12,49,7.60
2012,03,16,12,50,7.60
2012,03,16,12,51,7.50
2012,03,16,12,52,7.50
2012,03,16,12,53,7.50
2012,03,16,12,54,7.50
2012,03,16,12,55,7.50
2012,03,16,12,56,7.60
2012,03,16,12,57,7.60
2012,03,16,12,58,7.60
2012,03,16,12,59,7.50
2012,03,16,13,00,7.50
2012,03,16,13,01,7.50
2012,03,16,13,02,7.50
2012,03,16,13,03,7.40
2012,03,16,13,04,7.40
2012,03,16,13,05,7.40
2012,03,16,13,06,7.50
2012,03,16,13,07,7.50
2012,03,16,13,08,7.50
2012,03,16,13,09,7.50
2012,03,16,13,10,7.60
2012,03,16,13,11,7.60
2012,03,16,13,12,7.60
2012,03,16,13,13,7.70
2012,03,16,13,14,7.70
2012,03,16,13,15,7.70
2012,03,16,13,16,7.60
2012,03,16,13,17,7.60
2012,03,16,13,18,7.60
2012,03,16,13,19,7.60
2012,03,16,13,20,7.60
2012,03,16,13,21,7.60
2012,03,16,13,22,7.60
2012,03,16,13,23,7.60
2012,03,16,13,24,7.60
2012,03,16,13,25,7.50
2012,03,16,13,26,7.60
2012,03,16,13,27,7.60
2012,03,16,13,28,7.60
2012,03,16,13,29,7.70
2012,03,16,13,30,7.70
2012,03,16,13,31,7.70
2012,03,16,13,32,7.70
2012,03,16,13,33,7.70
2012,03,16,13,34,7.70
2012,03,16,13,35,7.60
2012,03,16,13,36,7.60
2012,03,16,13,37,7.60
2012,03,16,13,38,7.60
2012,03,16,13,39,7.60
2012,03,16,13,40,7.70
2012,03,16,13,41,7.70
2012,03,16,13,42,7.80
2012,03,16,13,43,7.80
2012,03,16,13,44,7.80
2012,03,16,13,45,7.80
2012,03,16,13,46,7.80
2012,03,16,13,47,7.90
2012,03,16,13,48,7.90
2012,03,16,13,49,7.90
2012,03,16,13,50,7.90
2012,03,16,13,51,8.00
2012,03,16,13,52,8.00
2012,03,16,13,53,8.00
2012,03,16,13,54,8.00
2012,03,16,13,55,8.00
2012,03,16,13,56,8.00
2012,03,16,13,57,8.00
2012,03,16,13,58,8.10
2012,03,16,13,59,8.10
2012,03,16,14,00,8.10
2012,03,16,14,01,8.10
2012,03,16,14,02,8.10
2012,03,16,14,03,8.20
2012,03,16,14,04,8.30
2012,03,16,14,05,8.30
2012,03,16,14,06,8.30
2012,03,16,14,07,8.30
2012,03,16,14,08,8.30
2012,03,16,14,09,8.20
2012,03,16,14,10,8.20
2012,03,16,14,11,8.20
2012,03,16,14,12,8.20
2012,03,16,14,13,8.10
2012,03,16,14,14,8.10
2012,03,16,14,15,8.10
2012,03,16,14,16,8.10
2012,03,16,14,17,8.20
2012,03,16,14,18,8.20
2012,03,16,14,19,8.30
2012,03,16,14,20,8.30
2012,03,16,14,21,8.40
2012,03,16,14,22,8.40
2012,03,16,14,23,8.40
2012,03,16,14,24,8.50
2012,03,16,14,25,8.50
2012,03,16,14,26,8.50
2012,03,16,14,27,8.50
2012,03,16,14,28,8.40
2012,03,16,14,29,8.40
2012,03,16,14,30,8.40
2012,03,16,14,31,8.40
2012,03,16,14,32,8.50
2012,03,16,14,33,8.50
2012,03,16,14,34,8.50
2012,03,16,14,35,8.50
2012,03,16,14,36,8.40
2012,03,16,14,37,8.30
2012,03,16,14,38,8.30
2012,03,16,14,39,8.30
2012,03,16,14,40,8.30
2012,03,16,14,41,8.30
2012,03,16,14,42,8.30
2012,03,16,14,43,8.30
2012,03,16,14,44,8.40
2012,03,16,14,45,8.30
2012,03,16,14,46,8.30
2012,03,16,14,47,8.20
2012,03,16,14,48,8.20
2012,03,16,14,49,8.10
2012,03,16,14,50,8.10
2012,03,16,14,51,8.10
2012,03,16,14,52,8.10
2012,03,16,14,53,8.20
2012,03,16,14,54,8.20
2012,03,16,14,55,8.30
2012,03,16,14,56,8.30
2012,03,16,14,57,8.40
2012,03,16,14,58,8.40
2012,03,16,14,59,8.50
2012,03,16,15,00,8.50
2012,03,16,15,01,8.60
2012,03,16,15,02,8.60
2012,03,16,15,03,8.60
2012,03,16,15,04,8.60
2012,03,16,15,05,8.70
2012,03,16,15,06,8.70
2012,03,16,15,07,8.70
2012,03,16,15,08,8.70
2012,03,16,15,09,8.80
2012,03,16,15,10,8.80
2012,03,16,15,11,8.90
2012,03,16,15,12,8.90
2012,03,16,15,13,8.90
2012,03,16,15,14,8.90
2012,03,16,15,15,8.90
2012,03,16,15,16,8.90
2012,03,16,15,17,8.90
2012,03,16,15,18,8.90
2012,03,16,15,19,8.90
2012,03,16,15,20,8.90
2012,03,16,15,21,8.90
2012,03,16,15,22,8.90
2012,03,16,15,23,8.90
2012,03,16,15,24,8.90
2012,03,16,15,25,8.90
2012,03,16,15,26,8.80
2012,03,16,15,27,8.80
2012,03,16,15,28,8.80
2012,03,16,15,29,8.80
2012,03,16,15,30,8.70
2012,03,16,15,31,8.70
2012,03,16,15,32,8.70
2012,03,16,15,33,8.70
2012,03,16,15,34,8.80
2012,03,16,15,35,8.80
2012,03,16,15,36,8.90
2012,03,16,15,37,8.90
2012,03,16,15,38,9.00
2012,03,16,15,39,9.00
2012,03,16,15,40,9.10
2012,03,16,15,41,9.10
2012,03,16,15,42,9.10
2012,03,16,15,43,9.20
2012,03,16,15,44,9.10
2012,03,16,15,45,9.10
2012,03,16,15,46,9.10
2012,03,16,15,47,9.10
2012,03,16,15,48,9.10
2012,03,16,15,49,9.10
2012,03,16,15,50,9.10
2012,03,16,15,51,9.10
2012,03,16,15,52,9.10
2012,03,16,15,53,9.10
2012,03,16,15,54,9.20
2012,03,16,15,55,9.20
2012,03,16,15,56,9.20
2012,03,16,15,57,9.20
2012,03,16,15,58,9.20
2012,03,16,15,59,9.30
2012,03,16,16,00,9.30
2012,03,16,16,01,9.30
2012,03,16,16,02,9.30
2012,03,16,16,03,9.40
2012,03,16,16,04,9.40
2012,03,16,16,05,9.40
2012,03,16,16,06,9.50
2012,03,16,16,07,9.50
2012,03,16,16,08,9.50
2012,03,16,16,09,9.60
2012,03,16,16,10,9.60
2012,03,16,16,11,9.60
2012,03,16,16,12,9.60
2012,03,16,16,13,9.60
2012,03,16,16,14,9.60
2012,03,16,16,15,9.60
2012,03,16,16,16,9.60
2012,03,16,16,17,9.60
2012,03,16,16,18,9.60
2012,03,16,16,19,9.70
2012,03,16,16,20,9.70
2012,03,16,16,21,9.70
2012,03,16,16,22,9.70
2012,03,16,16,23,9.70
2012,03,16,16,24,9.60
2012,03,16,16,25,9.60
2012,03,16,16,26,9.60
2012,03,16,16,27,9.50
2012,03,16,16,28,9.50
2012,03,16,16,29,9.50
2012,03,16,16,30,9.50
2012,03,16,16,31,9.50
2012,03,16,16,32,9.40
2012,03,16,16,33,9.40
2012,03,16,16,34,9.40
2012,03,16,16,35,9.40
2012,03,16,16,36,9.40
2012,03,16,16,37,9.30
2012,03,16,16,38,9.30
2012,03,16,16,39,9.30
2012,03,16,16,40,9.30
2012,03,16,16,41,9.30
2012,03,16,16,42,9.30
2012,03,16,16,43,9.30
2012,03,16,16,44,9.30
2012,03,16,16,45,9.30
2012,03,16,16,46,9.40
2012,03,16,16,47,9.40
2012,03,16,16,48,9.40
2012,03,16,16,49,9.40
2012,03,16,16,50,9.40
2012,03,16,16,51,9.50
2012,03,16,16,52,9.50
2012,03,16,16,53,9.50
2012,03,16,16,54,9.60
2012,03,16,16,55,9.60
2012,03,16,16,56,9.60
2012,03,16,16,57,9.50
2012,03,16,16,58,9.50
2012,03,16,16,59,9.50
2012,03,16,17,00,9.60
2012,03,16,17,01,9.60
2012,03,16,17,02,9.60
2012,03,16,17,03,9.60
2012,03,16,17,04,9.70
2012,03,16,17,05,9.70
2012,03,16,17,06,9.70
2012,03,16,17,07,9.70
2012,03,16,17,08,9.70
2012,03,16,17,09,9.80
2012,03,16,17,10,9.80
2012,03,16,17,11,9.90
2012,03,16,17,12,9.90
2012,03,16,17,13,9.90
2012,03,16,17,14,9.90
2012,03,16,17,15,9.90
2012,03,16,17,16,9.90
2012,03,16,17,17,9.90
2012,03,16,17,18,9.80
2012,03,16,17,19,9.80
2012,03,16,17,20,9.80
2012,03,16,17,21,9.80
2012,03,16,17,22,9.80
2012,03,16,17,23,9.80
2012,03,16,17,24,9.80
2012,03,16,17,25,9.80
2012,03,16,17,26,9.80
2012,03,16,17,27,9.80
2012,03,16,17,28,9.80
2012,03,16,17,29,9.90
2012,03,16,17,30,9.90
2012,03,16,17,31,9.90
2012,03,16,17,32,10.00
2012,03,16,17,33,10.00
2012,03,16,17,34,10.00
2012,03,16,17,35,10.10
2012,03,16,17,36,10.10
2012,03,16,17,37,10.10
2012,03,16,17,38,10.20
2012,03,16,17,39,10.20
2012,03,16,17,40,10.20
2012,03,16,17,41,10.20
2012,03,16,17,42,10.30
2012,03,16,17,43,10.30
2012,03,16,17,44,10.30
2012,03,16,17,45,10.30
2012,03,16,17,46,10.30
2012,03,16,17,47,10.30
2012,03,16,17,48,10.20
2012,03,16,17,49,10.10
2012,03,16,17,50,10.10
2012,03,16,17,51,10.00
2012,03,16,17,52,9.90
2012,03,16,17,53,9.80
2012,03,16,17,54,9.80
2012,03,16,17,55,9.80
2012,03,16,17,56,9.80
2012,03,16,17,57,9.80
2012,03,16,17,58,9.80
2012,03,16,17,59,9.80
2012,03,16,18,00,9.80
2012,03,16,18,01,9.80
2012,03,16,18,02,9.80
2012,03,16,18,03,9.80
2012,03,16,18,04,9.80
2012,03,16,18,05,9.80